STARLINK-1738 (46336 NORAD) Tracking and Keplerian Element Data

This shows tracking and keplerian element data for the satellite.

Feedback or suggestion? Click here.




ElementValue
Catalog46336
NameSTARLINK-1738
Epoch Orbit404
Epoch Day267.83334491
Epoch Year2020
RAAN328.3465
Inclination52.9971
Eccentricity0.0001204
Argument of Perigee83.7324
Mean Anonmoly133.5601
Mean Motion15.64624083
Decay Rate-0.01149676
L11 46336U 20062M 20267.83334491 -.01149676 00000-0 -12896-1 0 9997
L22 46336 52.9971 328.3465 0001204 83.7324 133.5601 15.64624083 4048

Live tracking and technical data element details for STARLINK-1738 (NORAD 46336). STARLINK-1738 can be tracked NOW for your location showing map with azimuth and elevation plus other details from your city location.

Track the satellite on the map from your city or location and see movement details for azimuth, elevation, latitude, longitude, range, height, and movement on the map or in text.







IsCatalogInMostPopularTable: catalog: 46336, numindb: 2
Update: records affected: 1



GetName: 46336 STARLINK-1738

Hit Count: updated at: Thu, 24 Sep 2020 18:44:52 GMT